Location: Serin Observatory
(40.5200°N, 74.4500°W)
Time: 21:22:07
(UTC+00:00)

SL-8 R/B - Visible Passes

Search period start: 20 November 2017 00:00
Search period end: 30 November 2017 00:00
Orbit: 657 x 667 km, 48.4° (Epoch: 20 November)

Date Brightness Start Highest point End Pass type
(mag) Time Alt. Az. Time Alt. Az. Time Alt. Az.
20 Nov 5.5 09:30:46 18° S 09:33:17 28° SE 09:37:20 10° ENE visible
20 Nov 3.7 11:10:47 10° WSW 11:15:33 69° NNW 11:20:19 10° ENE visible
21 Nov 6.7 08:23:28 11° ESE 08:23:28 11° ESE 08:24:02 10° ESE visible
21 Nov 4.0 10:01:31 26° SW 10:04:03 63° SE 10:08:47 10° ENE visible
22 Nov 5.6 08:53:57 26° ESE 08:53:57 26° ESE 08:56:56 10° ENE visible
22 Nov 3.7 10:31:59 21° WSW 10:35:05 66° NNW 10:39:51 10° ENE visible
23 Nov 4.1 09:24:14 59° E 09:24:14 59° E 09:28:20 10° ENE visible
23 Nov 4.3 11:02:15 12° W 11:06:22 40° NNW 11:10:53 10° NE visible
24 Nov 6.8 08:16:21 11° ENE 08:16:21 11° ENE 08:16:31 10° ENE visible
24 Nov 3.6 09:54:22 61° NW 09:54:39 63° NNW 09:59:23 10° ENE visible
25 Nov 6.0 08:46:22 20° ENE 08:46:22 20° ENE 08:47:53 10° ENE visible
25 Nov 4.3 10:24:21 30° WNW 10:25:56 39° NNW 10:30:26 10° NE visible
26 Nov 5.1 09:16:16 32° NE 09:16:16 32° NE 09:18:55 10° NE visible
26 Nov 4.7 10:54:15 16° WNW 10:57:22 32° N 11:01:39 10° ENE visible
27 Nov 4.6 09:46:05 37° N 09:46:05 37° N 09:49:58 10° NE visible
27 Nov 4.8 11:24:34 10° WNW 11:28:52 32° N 11:33:10 10° ENE visible
28 Nov 6.5 08:37:53 13° NE 08:37:53 13° NE 08:38:28 10° NE visible
28 Nov 4.7 10:15:52 28° NNW 10:16:57 31° N 10:21:13 10° ENE visible
29 Nov 5.8 09:07:38 21° NE 09:07:38 21° NE 09:09:31 10° NE visible
29 Nov 4.8 10:45:37 18° NW 10:48:26 33° N 10:52:45 10° ENE visible
